Location: Brede
(50.9167°N, 0.6000°E)
Time: 22:43:44
(UTC+00:00)

Transit 2A Rocket - Visible Passes

Search period start: 25 November 2020 00:00
Search period end: 05 December 2020 00:00
Orbit: 588 x 914 km, 66.7° (Epoch: 25 November)

Date Brightness Start Highest point End Pass type
(mag) Time Alt. Az. Time Alt. Az. Time Alt. Az.
25 Nov 7.5 03:04:54 19° NE 03:04:54 19° NE 03:06:20 10° NE visible
25 Nov 6.1 04:44:49 33° NNW 04:44:49 33° NNW 04:48:48 10° NNE visible
25 Nov 6.8 06:24:44 11° NW 06:27:52 17° NNW 06:31:16 10° NNE visible
26 Nov 6.6 04:03:39 28° NNE 04:03:39 28° NNE 04:06:17 10° NNE visible
26 Nov 6.6 05:43:34 18° NW 05:44:45 19° NNW 05:48:35 10° NNE visible
27 Nov 7.4 03:22:26 18° NNE 03:22:26 18° NNE 03:23:44 10° NE visible
27 Nov 6.5 05:02:21 23° NNW 05:02:21 23° NNW 05:06:01 10° NNE visible
27 Nov 6.9 06:43:16 10° NW 06:46:13 14° N 06:49:04 10° NNE visible
28 Nov 6.8 04:21:05 22° N 04:21:05 22° N 04:23:29 10° NNE visible
28 Nov 6.9 06:01:00 13° NW 06:03:02 15° N 06:06:06 10° NNE visible
29 Nov 7.4 03:39:48 16° NNE 03:39:48 16° NNE 03:40:59 10° NNE visible
29 Nov 6.8 05:19:42 17° NNW 05:19:52 17° NNW 05:23:21 10° NNE visible
30 Nov 6.9 04:38:22 18° N 04:38:22 18° N 04:40:44 10° NNE visible
30 Nov 7.0 06:18:32 10° NNW 06:21:24 14° N 06:24:08 10° NE visible
01 Dec 7.3 03:57:01 15° NNE 03:57:01 15° NNE 03:58:11 10° NNE visible
01 Dec 6.9 05:36:55 14° NNW 05:38:11 14° N 05:41:01 10° NNE visible
02 Dec 7.9 03:15:39 10° NNE 03:15:39 10° NNE 03:15:40 10° NNE visible
02 Dec 7.0 04:55:33 16° N 04:55:33 16° N 04:58:09 10° NNE visible
02 Dec 6.9 06:36:33 10° NNW 06:39:44 16° NNE 06:42:45 10° NE visible
03 Dec 7.3 04:14:10 14° N 04:14:10 14° N 04:15:28 10° NNE visible
03 Dec 7.0 05:54:05 11° NNW 05:56:33 14° N 05:59:18 10° NE visible
04 Dec 7.7 03:32:47 10° NNE 03:32:47 10° NNE 03:32:53 10° NNE visible
04 Dec 7.0 05:12:41 14° N 05:13:21 14° N 05:16:02 10° NNE visible
04 Dec 6.6 06:54:04 10° NNW 06:57:55 21° NNE 07:01:33 10° ENE visible
